Time,TemperatureF,DewpointF,PressureIn,WindDirection,WindDirectionDegrees,WindSpeedMPH,WindSpeedGustMPH,Humidity,HourlyPrecipIn,Conditions,Clouds,dailyrainin,SolarRadiationWatts/m^2,SoftwareType,DateUTC
2013-07-31 00:05:00,88.0,68.1,30.02,SW,225,2.3,2.3,52,0.00,CLR,,0.00,0.0,WeatherDisplay:10.37,2013-07-31 05:05:00,
2013-07-31 00:10:00,88.0,68.1,30.02,SW,225,2.6,2.6,52,0.00,CLR,,0.00,0.0,WeatherDisplay:10.37,2013-07-31 05:10:00,
2013-07-31 00:15:00,87.4,68.2,30.02,South,180,1.4,1.4,53,0.00,CLR,,0.00,0.0,WeatherDisplay:10.37,2013-07-31 05:15:00,
2013-07-31 00:20:00,87.6,68.4,30.02,South,180,1.2,1.2,53,0.00,CLR,,0.00,0.0,WeatherDisplay:10.37,2013-07-31 05:20:00,
2013-07-31 00:25:00,87.4,68.2,30.02,South,180,1.2,1.2,53,0.00,CLR,,0.00,0.0,WeatherDisplay:10.37,2013-07-31 05:25:00,
2013-07-31 00:30:00,87.3,68.0,30.02,SW,225,0.0,0.6,53,0.00,CLR,,0.00,0.0,WeatherDisplay:10.37,2013-07-31 05:30:00,
2013-07-31 00:35:00,87.3,68.0,30.02,SW,225,1.2,1.2,53,0.00,CLR,,0.00,0.0,WeatherDisplay:10.37,2013-07-31 05:35:00,
2013-07-31 00:41:00,86.9,68.3,30.02,SE,135,3.5,3.5,54,0.00,CLR,,0.00,0.0,WeatherDisplay:10.37,2013-07-31 05:41:00,
2013-07-31 00:46:00,86.7,68.1,30.02,South,180,1.6,1.6,54,0.00,CLR,,0.00,0.0,WeatherDisplay:10.37,2013-07-31 05:46:00,
2013-07-31 00:51:00,86.7,68.1,30.03,South,180,3.5,3.5,54,0.00,CLR,,0.00,0.0,WeatherDisplay:10.37,2013-07-31 05:51:00,
2013-07-31 00:56:00,86.5,67.9,30.03,SE,135,3.6,3.6,54,0.00,CLR,,0.00,0.0,WeatherDisplay:10.37,2013-07-31 05:56:00,
2013-07-31 01:02:00,86.5,67.9,30.03,SE,135,3.5,3.5,54,0.00,CLR,,0.00,0.0,WeatherDisplay:10.37,2013-07-31 06:02:00,
2013-07-31 01:07:00,86.4,67.8,30.03,SE,135,4.6,4.6,54,0.00,CLR,,0.00,0.0,WeatherDisplay:10.37,2013-07-31 06:07:00,
2013-07-31 01:12:00,86.5,67.9,30.03,South,180,3.5,3.6,54,0.00,CLR,,0.00,0.0,WeatherDisplay:10.37,2013-07-31 06:12:00,
2013-07-31 01:17:00,86.4,67.8,30.03,SE,135,4.9,4.9,54,0.00,CLR,,0.00,0.0,WeatherDisplay:10.37,2013-07-31 06:17:00,
2013-07-31 01:22:00,86.2,67.6,30.03,SSE,158,5.8,5.8,54,0.00,CLR,,0.00,0.0,WeatherDisplay:10.37,2013-07-31 06:22:00,
2013-07-31 01:27:00,86.2,67.6,30.03,SW,225,4.9,4.9,54,0.00,CLR,,0.00,0.0,WeatherDisplay:10.37,2013-07-31 06:27:00,
2013-07-31 01:32:00,86.0,67.4,30.03,SSW,202,5.8,5.8,54,0.00,CLR,,0.00,0.0,WeatherDisplay:10.37,2013-07-31 06:32:00,
2013-07-31 01:37:00,86.0,67.4,30.03,SSW,202,4.6,4.6,54,0.00,CLR,,0.00,0.0,WeatherDisplay:10.37,2013-07-31 06:37:00,
2013-07-31 01:43:00,85.8,67.8,30.03,SW,225,4.6,4.6,55,0.00,CLR,,0.00,0.0,WeatherDisplay:10.37,2013-07-31 06:43:00,
2013-07-31 01:48:00,85.8,67.8,30.03,SE,135,4.9,4.9,55,0.00,CLR,,0.00,0.0,WeatherDisplay:10.37,2013-07-31 06:48:00,
2013-07-31 01:53:00,85.5,67.4,30.03,South,180,8.1,8.1,55,0.00,CLR,,0.00,0.0,WeatherDisplay:10.37,2013-07-31 06:53:00,
2013-07-31 01:58:00,85.5,67.4,30.03,SSE,158,4.6,4.6,55,0.00,CLR,,0.00,0.0,WeatherDisplay:10.37,2013-07-31 06:58:00,
2013-07-31 02:03:00,85.5,68.0,30.03,SSE,158,5.8,5.8,56,0.00,CLR,,0.00,0.0,WeatherDisplay:10.37,2013-07-31 07:03:00,
2013-07-31 02:08:00,85.3,67.8,30.03,SSE,158,4.6,4.6,56,0.00,CLR,,0.00,0.0,WeatherDisplay:10.37,2013-07-31 07:08:00,
2013-07-31 02:14:00,85.1,67.6,30.03,WSW,248,6.9,6.9,56,0.00,CLR,,0.00,0.0,WeatherDisplay:10.37,2013-07-31 07:14:00,
2013-07-31 02:19:00,85.1,67.6,30.03,SSW,202,2.3,2.9,56,0.00,CLR,,0.00,0.0,WeatherDisplay:10.37,2013-07-31 07:19:00,
2013-07-31 02:24:00,84.9,67.5,30.03,ESE,112,4.6,4.6,56,0.00,CLR,,0.00,0.0,WeatherDisplay:10.37,2013-07-31 07:24:00,
2013-07-31 02:29:00,84.7,67.3,30.04,SSE,158,4.6,4.6,56,0.00,CLR,,0.00,0.0,WeatherDisplay:10.37,2013-07-31 07:29:00,
2013-07-31 02:34:00,84.7,67.3,30.04,ESE,112,2.3,2.8,56,0.00,CLR,,0.00,0.0,WeatherDisplay:10.37,2013-07-31 07:34:00,
2013-07-31 02:39:00,84.7,67.8,30.04,SE,135,4.6,4.6,57,0.00,CLR,,0.00,0.0,WeatherDisplay:10.37,2013-07-31 07:39:00,
2013-07-31 02:44:00,84.6,67.6,30.04,SSE,158,4.4,4.4,57,0.00,CLR,,0.00,0.0,WeatherDisplay:10.37,2013-07-31 07:44:00,
2013-07-31 02:50:00,84.4,67.5,30.04,South,180,2.3,2.5,57,0.00,CLR,,0.00,0.0,WeatherDisplay:10.37,2013-07-31 07:50:00,
2013-07-31 02:55:00,84.2,67.3,30.04,South,180,4.6,4.6,57,0.00,CLR,,0.00,0.0,WeatherDisplay:10.37,2013-07-31 07:55:00,
2013-07-31 03:00:00,84.4,67.5,30.04,SE,135,2.3,2.3,57,0.00,CLR,,0.00,0.0,WeatherDisplay:10.37,2013-07-31 08:00:00,
2013-07-31 03:06:00,84.2,67.3,30.04,SE,135,3.5,3.5,57,0.00,CLR,,0.00,0.0,WeatherDisplay:10.37,2013-07-31 08:06:00,
2013-07-31 03:11:00,84.2,67.3,30.03,SE,135,3.5,3.5,57,0.00,CLR,,0.00,0.0,WeatherDisplay:10.37,2013-07-31 08:11:00,
2013-07-31 03:16:00,84.0,67.1,30.03,SW,225,1.6,2.1,57,0.00,CLR,,0.00,0.0,WeatherDisplay:10.37,2013-07-31 08:16:00,
2013-07-31 03:21:00,83.7,67.3,30.03,SE,135,3.5,3.5,58,0.00,CLR,,0.00,0.0,WeatherDisplay:10.37,2013-07-31 08:21:00,
2013-07-31 03:27:00,83.5,66.6,30.03,SE,135,3.5,3.5,57,0.00,CLR,,0.00,0.0,WeatherDisplay:10.37,2013-07-31 08:27:00,
2013-07-31 03:32:00,83.7,67.3,30.02,South,180,1.2,2.0,58,0.00,CLR,,0.00,0.0,WeatherDisplay:10.37,2013-07-31 08:32:00,
2013-07-31 03:37:00,83.3,67.0,30.02,SE,135,2.3,2.3,58,0.00,CLR,,0.00,0.0,WeatherDisplay:10.37,2013-07-31 08:37:00,
2013-07-31 03:42:00,83.3,66.5,30.02,WSW,248,2.3,2.3,57,0.00,CLR,,0.00,0.0,WeatherDisplay:10.37,2013-07-31 08:42:00,
2013-07-31 03:48:00,83.1,66.3,30.02,SSE,158,4.6,4.6,57,0.00,CLR,,0.00,0.0,WeatherDisplay:10.37,2013-07-31 08:48:00,
2013-07-31 03:53:00,83.1,66.3,30.03,SE,135,2.3,2.3,57,0.00,CLR,,0.00,0.0,WeatherDisplay:10.37,2013-07-31 08:53:00,
2013-07-31 03:58:00,82.9,66.1,30.03,South,180,5.8,5.8,57,0.00,CLR,,0.00,0.0,WeatherDisplay:10.37,2013-07-31 08:58:00,
2013-07-31 04:03:00,82.9,66.6,30.03,South,180,3.5,3.5,58,0.00,CLR,,0.00,0.0,WeatherDisplay:10.37,2013-07-31 09:03:00,
2013-07-31 04:09:00,82.8,66.5,30.03,NNW,338,2.3,2.3,58,0.00,CLR,,0.00,0.0,WeatherDisplay:10.37,2013-07-31 09:09:00,
2013-07-31 04:14:00,82.9,66.6,30.03,East,90,5.1,5.1,58,0.00,CLR,,0.00,0.0,WeatherDisplay:10.37,2013-07-31 09:14:00,
2013-07-31 04:19:00,82.6,66.3,30.03,NNW,338,5.8,5.8,58,0.00,CLR,,0.00,0.0,WeatherDisplay:10.37,2013-07-31 09:19:00,
2013-07-31 04:24:00,82.6,66.8,30.03,South,180,4.6,4.6,59,0.00,CLR,,0.00,0.0,WeatherDisplay:10.37,2013-07-31 09:24:00,
2013-07-31 04:29:00,82.4,66.6,30.03,South,180,3.5,3.5,59,0.00,CLR,,0.00,0.0,WeatherDisplay:10.37,2013-07-31 09:29:00,
2013-07-31 04:34:00,82.4,66.6,30.03,NW,315,2.3,2.3,59,0.00,CLR,,0.00,0.0,WeatherDisplay:10.37,2013-07-31 09:34:00,
2013-07-31 04:39:00,82.2,66.5,30.03,SW,225,2.3,2.3,59,0.00,CLR,,0.00,0.0,WeatherDisplay:10.37,2013-07-31 09:39:00,
2013-07-31 04:45:00,82.2,66.9,30.03,WSW,248,2.3,2.3,60,0.00,CLR,,0.00,0.0,WeatherDisplay:10.37,2013-07-31 09:45:00,
2013-07-31 04:50:00,82.0,66.8,30.03,SSE,158,3.5,3.5,60,0.00,CLR,,0.00,0.0,WeatherDisplay:10.37,2013-07-31 09:50:00,
2013-07-31 04:55:00,82.2,66.9,30.03,South,180,2.3,2.3,60,0.00,CLR,,0.00,0.0,WeatherDisplay:10.37,2013-07-31 09:55:00,
2013-07-31 05:00:00,81.9,66.6,30.03,ESE,112,2.8,2.8,60,0.00,CLR,,0.00,0.0,WeatherDisplay:10.37,2013-07-31 10:00:00,
2013-07-31 05:05:00,81.9,67.1,30.03,SE,135,1.2,1.2,61,0.00,CLR,,0.00,0.0,WeatherDisplay:10.37,2013-07-31 10:05:00,
2013-07-31 05:11:00,81.9,67.1,30.03,SW,225,2.3,2.3,61,0.00,CLR,,0.00,0.0,WeatherDisplay:10.37,2013-07-31 10:11:00,
2013-07-31 05:16:00,81.9,67.1,30.03,SE,135,0.0,0.9,61,0.00,CLR,,0.00,0.0,WeatherDisplay:10.37,2013-07-31 10:16:00,
2013-07-31 05:21:00,81.9,67.6,30.03,South,180,1.2,1.2,62,0.00,CLR,,0.00,0.0,WeatherDisplay:10.37,2013-07-31 10:21:00,
2013-07-31 05:26:00,81.7,67.4,30.03,SSE,158,2.3,2.3,62,0.00,CLR,,0.00,0.0,WeatherDisplay:10.37,2013-07-31 10:26:00,
2013-07-31 05:31:00,81.5,67.2,30.04,South,180,2.3,2.3,62,0.00,CLR,,0.00,0.0,WeatherDisplay:10.37,2013-07-31 10:31:00,
2013-07-31 05:36:00,81.5,67.7,30.04,South,180,2.3,2.3,63,0.00,CLR,,0.00,0.0,WeatherDisplay:10.37,2013-07-31 10:36:00,
2013-07-31 05:41:00,81.3,67.5,30.04,SSE,158,3.5,3.5,63,0.00,CLR,,0.00,0.0,WeatherDisplay:10.37,2013-07-31 10:41:00,
2013-07-31 05:47:00,81.3,68.0,30.04,SE,135,2.3,2.3,64,0.00,CLR,,0.00,0.0,WeatherDisplay:10.37,2013-07-31 10:47:00,
2013-07-31 05:52:00,81.3,68.0,30.06,South,180,3.5,3.5,64,0.00,CLR,,0.00,0.0,WeatherDisplay:10.37,2013-07-31 10:52:00,
2013-07-31 05:57:00,81.1,68.3,30.06,SSE,158,0.0,1.0,65,0.00,CLR,,0.00,0.0,WeatherDisplay:10.37,2013-07-31 10:57:00,
2013-07-31 06:02:00,81.1,68.3,30.06,SE,135,1.2,1.2,65,0.00,CLR,,0.00,0.0,WeatherDisplay:10.37,2013-07-31 11:02:00,
2013-07-31 06:07:00,81.1,68.3,30.06,SSE,158,2.3,2.3,65,0.00,CLR,,0.00,0.0,WeatherDisplay:10.37,2013-07-31 11:07:00,
2013-07-31 06:12:00,81.1,68.7,30.06,SSE,158,2.3,2.3,66,0.00,OVC,,0.00,0.0,WeatherDisplay:10.37,2013-07-31 11:12:00,
2013-07-31 06:17:00,81.0,68.5,30.06,South,180,2.2,2.2,66,0.00,OVC,,0.00,0.0,WeatherDisplay:10.37,2013-07-31 11:17:00,
2013-07-31 06:23:00,81.1,68.7,30.06,SSE,158,2.3,2.3,66,0.00,OVC,,0.00,0.0,WeatherDisplay:10.37,2013-07-31 11:23:00,
2013-07-31 06:28:00,81.1,69.1,30.06,SSE,158,2.3,2.3,67,0.00,OVC,,0.00,0.0,WeatherDisplay:10.37,2013-07-31 11:28:00,
2013-07-31 06:33:00,81.0,69.0,30.07,South,180,2.3,2.3,67,0.00,OVC,,0.00,0.0,WeatherDisplay:10.37,2013-07-31 11:33:00,
2013-07-31 06:38:00,81.0,69.4,30.07,South,180,1.2,1.2,68,0.00,OVC,,0.00,0.0,WeatherDisplay:10.37,2013-07-31 11:38:00,
2013-07-31 06:43:00,80.8,69.2,30.07,SE,135,2.3,2.3,68,0.00,OVC,,0.00,0.0,WeatherDisplay:10.37,2013-07-31 11:43:00,
2013-07-31 06:49:00,80.8,69.2,30.08,SE,135,1.2,1.2,68,0.00,OVC,,0.00,0.0,WeatherDisplay:10.37,2013-07-31 11:49:00,
2013-07-31 06:54:00,80.8,69.2,30.08,SW,225,1.2,1.3,68,0.00,OVC,,0.00,0.0,WeatherDisplay:10.37,2013-07-31 11:54:00,
2013-07-31 06:59:00,80.8,69.2,30.08,SW,225,2.3,2.3,68,0.00,OVC,,0.00,0.0,WeatherDisplay:10.37,2013-07-31 11:59:00,
2013-07-31 07:04:00,80.6,69.5,30.08,WSW,248,2.3,2.3,69,0.00,OVC,,0.00,0.0,WeatherDisplay:10.37,2013-07-31 12:04:00,
2013-07-31 07:09:00,80.8,69.7,30.08,South,180,3.5,3.5,69,0.00,OVC,,0.00,0.0,WeatherDisplay:10.37,2013-07-31 12:09:00,
2013-07-31 07:15:00,80.8,70.1,30.08,WSW,248,1.2,1.4,70,0.00,OVC,,0.00,0.0,WeatherDisplay:10.37,2013-07-31 12:15:00,
2013-07-31 07:20:00,80.8,69.7,30.08,SSE,158,2.8,2.8,69,0.00,OVC,,0.00,0.0,WeatherDisplay:10.37,2013-07-31 12:20:00,
2013-07-31 07:25:00,80.8,70.1,30.08,South,180,2.3,2.3,70,0.00,OVC,,0.00,0.0,WeatherDisplay:10.37,2013-07-31 12:25:00,
2013-07-31 07:30:00,80.6,69.9,30.08,WNW,292,3.5,3.5,70,0.00,OVC,,0.00,0.0,WeatherDisplay:10.37,2013-07-31 12:30:00,
2013-07-31 07:35:00,80.4,69.7,30.08,West,270,1.2,1.2,70,0.00,OVC,,0.00,0.0,WeatherDisplay:10.37,2013-07-31 12:35:00,
2013-07-31 07:40:00,80.6,69.9,30.08,SE,135,2.3,2.3,70,0.00,OVC,,0.00,0.0,WeatherDisplay:10.37,2013-07-31 12:40:00,
2013-07-31 07:45:00,80.6,70.3,30.08,WSW,248,3.5,3.5,71,0.00,OVC,,0.00,0.0,WeatherDisplay:10.37,2013-07-31 12:45:00,
2013-07-31 07:50:00,80.6,70.3,30.09,SSW,202,3.5,3.5,71,0.00,OVC,,0.00,0.0,WeatherDisplay:10.37,2013-07-31 12:50:00,
2013-07-31 07:56:00,80.4,70.2,30.09,SW,225,2.3,2.3,71,0.00,OVC,,0.00,0.0,WeatherDisplay:10.37,2013-07-31 12:56:00,
2013-07-31 08:02:00,80.6,70.7,30.09,South,180,3.5,3.5,72,0.00,OVC,,0.00,0.0,WeatherDisplay:10.37,2013-07-31 13:02:00,
2013-07-31 08:07:00,80.6,70.7,30.09,SE,135,2.9,2.9,72,0.00,OVC,,0.00,0.0,WeatherDisplay:10.37,2013-07-31 13:07:00,
2013-07-31 08:12:00,80.8,70.9,30.08,SSE,158,4.6,4.6,72,0.00,OVC,,0.00,0.0,WeatherDisplay:10.37,2013-07-31 13:12:00,
2013-07-31 08:17:00,80.6,70.7,30.08,WSW,248,2.3,2.3,72,0.00,OVC,,0.00,0.0,WeatherDisplay:10.37,2013-07-31 13:17:00,
2013-07-31 08:22:00,80.6,71.1,30.08,SE,135,2.3,2.3,73,0.00,OVC,,0.00,0.0,WeatherDisplay:10.37,2013-07-31 13:22:00,
2013-07-31 08:28:00,80.6,71.1,30.08,SW,225,2.3,2.3,73,0.00,OVC,,0.00,0.0,WeatherDisplay:10.37,2013-07-31 13:28:00,
2013-07-31 08:33:00,80.8,71.3,30.10,WSW,248,2.3,2.3,73,0.00,OVC,,0.00,0.0,WeatherDisplay:10.37,2013-07-31 13:33:00,
2013-07-31 08:38:00,80.8,71.3,30.10,South,180,2.6,2.6,73,0.00,OVC,,0.00,0.0,WeatherDisplay:10.37,2013-07-31 13:38:00,
2013-07-31 08:43:00,81.1,71.7,30.10,North,0,2.3,2.3,73,0.00,OVC,,0.00,0.0,WeatherDisplay:10.37,2013-07-31 13:43:00,
2013-07-31 08:48:00,81.0,71.5,30.09,ESE,112,4.8,4.8,73,0.00,OVC,,0.00,0.0,WeatherDisplay:10.37,2013-07-31 13:48:00,
2013-07-31 08:54:00,81.1,71.7,30.09,West,270,1.2,1.2,73,0.00,OVC,,0.00,10.0,WeatherDisplay:10.37,2013-07-31 13:54:00,
2013-07-31 08:59:00,81.3,71.8,30.09,South,180,2.3,2.3,73,0.00,OVC,,0.00,10.0,WeatherDisplay:10.37,2013-07-31 13:59:00,
2013-07-31 09:04:00,81.5,72.0,30.09,ENE,68,0.0,1.2,73,0.00,OVC,,0.00,10.0,WeatherDisplay:10.37,2013-07-31 14:04:00,
2013-07-31 09:09:00,81.7,71.8,30.10,SW,225,2.3,2.3,72,0.00,OVC,,0.00,10.0,WeatherDisplay:10.37,2013-07-31 14:09:00,
2013-07-31 09:14:00,82.2,72.3,30.10,North,0,1.2,1.5,72,0.00,OVC,,0.00,30.0,WeatherDisplay:10.37,2013-07-31 14:14:00,
2013-07-31 09:19:00,82.2,71.9,30.10,South,180,8.4,8.4,71,0.00,OVC,,0.00,30.0,WeatherDisplay:10.37,2013-07-31 14:19:00,
2013-07-31 09:24:00,82.4,72.0,30.10,SW,225,1.2,1.4,71,0.00,OVC,,0.00,40.0,WeatherDisplay:10.37,2013-07-31 14:24:00,
2013-07-31 09:30:00,82.9,72.1,30.10,SSE,158,0.0,1.2,70,0.00,OVC,,0.00,40.0,WeatherDisplay:10.37,2013-07-31 14:30:00,
2013-07-31 09:35:00,82.9,72.1,30.10,SW,225,1.2,1.2,70,0.00,OVC,,0.00,50.0,WeatherDisplay:10.37,2013-07-31 14:35:00,
2013-07-31 09:40:00,82.9,71.7,30.10,SSW,202,0.0,0.3,69,0.00,OVC,,0.00,50.0,WeatherDisplay:10.37,2013-07-31 14:40:00,
2013-07-31 09:45:00,82.9,71.7,30.10,South,180,1.2,1.2,69,0.00,OVC,,0.00,20.0,WeatherDisplay:10.37,2013-07-31 14:45:00,
2013-07-31 09:50:00,82.9,71.7,30.10,SSE,158,2.3,2.3,69,0.00,OVC,,0.00,20.0,WeatherDisplay:10.37,2013-07-31 14:50:00,
2013-07-31 09:55:00,82.9,71.7,30.10,SSE,158,1.2,1.2,69,0.00,OVC,,0.00,20.0,WeatherDisplay:10.37,2013-07-31 14:55:00,
2013-07-31 10:00:00,83.1,71.5,30.10,ESE,112,2.3,2.3,68,0.00,OVC,,0.00,20.0,WeatherDisplay:10.37,2013-07-31 15:00:00,
2013-07-31 10:05:00,83.1,71.9,30.10,South,180,2.3,2.3,69,0.00,OVC,,0.00,20.0,WeatherDisplay:10.37,2013-07-31 15:05:00,
2013-07-31 10:11:00,83.5,71.8,30.11,South,180,2.3,2.3,68,0.00,OVC,,0.00,20.0,WeatherDisplay:10.37,2013-07-31 15:11:00,
2013-07-31 10:16:00,83.7,72.0,30.11,SE,135,0.0,1.2,68,0.00,OVC,,0.00,20.0,WeatherDisplay:10.37,2013-07-31 15:16:00,
2013-07-31 10:21:00,84.0,72.3,30.11,SE,135,0.0,0.8,68,0.00,OVC,,0.00,20.0,WeatherDisplay:10.37,2013-07-31 15:21:00,
2013-07-31 10:26:00,84.0,71.9,30.11,WSW,248,1.4,1.4,67,0.00,OVC,,0.00,20.0,WeatherDisplay:10.37,2013-07-31 15:26:00,
2013-07-31 10:32:00,84.0,71.4,30.10,South,180,2.3,2.3,66,0.00,OVC,,0.00,30.0,WeatherDisplay:10.37,2013-07-31 15:32:00,
2013-07-31 10:37:00,84.6,71.9,30.10,NNW,338,3.5,3.5,66,0.00,OVC,,0.00,40.0,WeatherDisplay:10.37,2013-07-31 15:37:00,
2013-07-31 10:42:00,84.7,71.7,30.10,SSE,158,2.3,2.3,65,0.00,OVC,,0.00,50.0,WeatherDisplay:10.37,2013-07-31 15:42:00,
2013-07-31 10:47:00,85.5,71.9,30.10,SSE,158,2.3,2.3,64,0.00,OVC,,0.00,50.0,WeatherDisplay:10.37,2013-07-31 15:47:00,
2013-07-31 10:53:00,85.5,71.0,30.10,SE,135,2.8,2.8,62,0.00,OVC,,0.00,50.0,WeatherDisplay:10.37,2013-07-31 15:53:00,
2013-07-31 10:58:00,85.8,70.8,30.10,SSE,158,1.2,1.2,61,0.00,OVC,,0.00,50.0,WeatherDisplay:10.37,2013-07-31 15:58:00,
2013-07-31 11:03:00,86.0,71.0,30.10,WNW,292,2.3,2.3,61,0.00,OVC,,0.00,50.0,WeatherDisplay:10.37,2013-07-31 16:03:00,
2013-07-31 11:08:00,86.4,71.3,30.11,WNW,292,2.3,2.3,61,0.00,OVC,,0.00,50.0,WeatherDisplay:10.37,2013-07-31 16:08:00,
2013-07-31 11:13:00,86.7,70.7,30.11,West,270,2.3,2.3,59,0.00,OVC,,0.00,50.0,WeatherDisplay:10.37,2013-07-31 16:13:00,
2013-07-31 11:19:00,86.9,70.3,30.11,WNW,292,2.3,2.3,58,0.00,OVC,,0.00,50.0,WeatherDisplay:10.37,2013-07-31 16:19:00,
2013-07-31 11:24:00,87.1,70.5,30.11,SSE,158,0.0,0.9,58,0.00,OVC,,0.00,50.0,WeatherDisplay:10.37,2013-07-31 16:24:00,
2013-07-31 11:29:00,87.8,71.2,30.10,SSE,158,2.3,2.3,58,0.00,OVC,,0.00,50.0,WeatherDisplay:10.37,2013-07-31 16:29:00,
2013-07-31 11:34:00,88.0,70.8,30.10,South,180,0.0,0.7,57,0.00,OVC,,0.00,60.0,WeatherDisplay:10.37,2013-07-31 16:34:00,
2013-07-31 11:39:00,88.3,71.2,30.10,SSW,202,2.3,2.3,57,0.00,OVC,,0.00,60.0,WeatherDisplay:10.37,2013-07-31 16:39:00,
2013-07-31 11:45:00,88.5,70.8,30.10,SW,225,2.3,2.3,56,0.00,CLR,,0.00,60.0,WeatherDisplay:10.37,2013-07-31 16:45:00,
2013-07-31 11:50:00,88.9,70.6,30.09,West,270,0.0,0.9,55,0.00,CLR,,0.00,60.0,WeatherDisplay:10.37,2013-07-31 16:50:00,
2013-07-31 11:55:00,89.2,70.4,30.09,WSW,248,2.3,2.3,54,0.00,CLR,,0.00,60.0,WeatherDisplay:10.37,2013-07-31 16:55:00,
2013-07-31 12:00:00,89.4,71.1,30.09,West,270,0.0,0.6,55,0.00,CLR,,0.00,60.0,WeatherDisplay:10.37,2013-07-31 17:00:00,
2013-07-31 12:05:00,89.6,70.8,30.09,SSE,158,3.5,3.5,54,0.00,FEW,,0.00,50.0,WeatherDisplay:10.37,2013-07-31 17:05:00,
2013-07-31 12:10:00,89.6,70.8,30.06,SSE,158,3.5,3.5,54,0.00,SCT,,0.00,50.0,WeatherDisplay:10.37,2013-07-31 17:10:00,
2013-07-31 12:15:00,90.5,70.5,30.06,NW,315,1.4,1.4,52,0.00,SCT,,0.00,50.0,WeatherDisplay:10.37,2013-07-31 17:15:00,
2013-07-31 12:21:00,90.9,70.8,30.06,West,270,2.3,2.3,52,0.00,BKN,,0.00,40.0,WeatherDisplay:10.37,2013-07-31 17:21:00,
2013-07-31 12:26:00,90.9,70.2,30.06,WSW,248,2.3,2.3,51,0.00,OVC,,0.00,40.0,WeatherDisplay:10.37,2013-07-31 17:26:00,
2013-07-31 12:31:00,91.2,70.6,30.08,SSE,158,2.3,2.3,51,0.00,OVC,,0.00,40.0,WeatherDisplay:10.37,2013-07-31 17:31:00,
2013-07-31 12:37:00,91.6,70.9,30.08,West,270,1.2,1.2,51,0.00,OVC,,0.00,30.0,WeatherDisplay:10.37,2013-07-31 17:37:00,
2013-07-31 12:42:00,91.6,70.9,30.08,WSW,248,1.6,1.6,51,0.00,OVC,,0.00,30.0,WeatherDisplay:10.37,2013-07-31 17:42:00,
2013-07-31 12:47:00,91.9,71.8,30.08,West,270,1.5,1.5,52,0.00,OVC,,0.00,30.0,WeatherDisplay:10.37,2013-07-31 17:47:00,
2013-07-31 12:52:00,92.3,71.6,30.07,South,180,1.2,1.2,51,0.00,OVC,,0.00,30.0,WeatherDisplay:10.37,2013-07-31 17:52:00,
2013-07-31 12:58:00,92.3,71.0,30.07,SSE,158,1.2,1.2,50,0.00,OVC,,0.00,40.0,WeatherDisplay:10.37,2013-07-31 17:58:00,
2013-07-31 13:03:00,92.7,71.9,30.07,SE,135,2.3,2.3,51,0.00,OVC,,0.00,40.0,WeatherDisplay:10.37,2013-07-31 18:03:00,
2013-07-31 13:08:00,92.8,71.5,30.07,North,0,1.2,1.2,50,0.00,OVC,,0.00,50.0,WeatherDisplay:10.37,2013-07-31 18:08:00,
2013-07-31 13:13:00,93.4,71.4,30.06,WNW,292,1.2,1.2,49,0.00,OVC,,0.00,50.0,WeatherDisplay:10.37,2013-07-31 18:13:00,
2013-07-31 13:18:00,93.7,71.7,30.06,West,270,1.2,1.2,49,0.00,OVC,,0.00,50.0,WeatherDisplay:10.37,2013-07-31 18:18:00,
2013-07-31 13:23:00,93.7,72.3,30.06,South,180,0.0,0.3,50,0.00,OVC,,0.00,60.0,WeatherDisplay:10.37,2013-07-31 18:23:00,
2013-07-31 13:29:00,93.9,71.2,30.06,SSW,202,0.0,0.3,48,0.00,OVC,,0.00,60.0,WeatherDisplay:10.37,2013-07-31 18:29:00,
2013-07-31 13:34:00,94.1,72.0,30.06,NNW,338,2.3,2.3,49,0.00,OVC,,0.00,60.0,WeatherDisplay:10.37,2013-07-31 18:34:00,
2013-07-31 13:39:00,94.3,72.2,30.06,NW,315,1.2,1.2,49,0.00,OVC,,0.00,60.0,WeatherDisplay:10.37,2013-07-31 18:39:00,
2013-07-31 13:44:00,94.5,71.7,30.06,NW,315,1.2,1.2,48,0.00,OVC,,0.00,60.0,WeatherDisplay:10.37,2013-07-31 18:44:00,
2013-07-31 13:49:00,94.5,71.7,30.06,West,270,1.4,1.4,48,0.00,OVC,,0.00,60.0,WeatherDisplay:10.37,2013-07-31 18:49:00,
2013-07-31 13:54:00,95.0,72.2,30.06,SSW,202,0.0,0.3,48,0.00,OVC,,0.00,60.0,WeatherDisplay:10.37,2013-07-31 18:54:00,
2013-07-31 14:00:00,95.0,72.2,30.06,WSW,248,1.2,1.2,48,0.00,OVC,,0.00,60.0,WeatherDisplay:10.37,2013-07-31 19:00:00,
2013-07-31 14:05:00,95.4,71.9,30.06,SE,135,2.3,2.3,47,0.00,OVC,,0.00,60.0,WeatherDisplay:10.37,2013-07-31 19:05:00,
2013-07-31 14:10:00,95.7,72.9,30.04,South,180,0.0,0.7,48,0.00,OVC,,0.00,60.0,WeatherDisplay:10.37,2013-07-31 19:10:00,
2013-07-31 14:15:00,95.9,73.1,30.04,West,270,1.2,1.2,48,0.00,OVC,,0.00,60.0,WeatherDisplay:10.37,2013-07-31 19:15:00,
2013-07-31 14:20:00,96.3,72.8,30.04,South,180,0.0,0.3,47,0.00,OVC,,0.00,60.0,WeatherDisplay:10.37,2013-07-31 19:20:00,
2013-07-31 14:26:00,96.3,72.8,30.04,NNW,338,0.0,0.2,47,0.00,OVC,,0.00,70.0,WeatherDisplay:10.37,2013-07-31 19:26:00,
2013-07-31 14:31:00,96.6,73.1,30.03,WNW,292,1.2,1.2,47,0.00,OVC,,0.00,70.0,WeatherDisplay:10.37,2013-07-31 19:31:00,
2013-07-31 14:36:00,96.8,73.2,30.03,SSW,202,0.0,0.3,47,0.00,OVC,,0.00,70.0,WeatherDisplay:10.37,2013-07-31 19:36:00,
2013-07-31 14:42:00,96.8,73.2,30.03,ESE,112,0.0,0.5,47,0.00,OVC,,0.00,70.0,WeatherDisplay:10.37,2013-07-31 19:42:00,
2013-07-31 14:47:00,97.2,72.9,30.03,SSE,158,2.3,2.3,46,0.00,OVC,,0.00,70.0,WeatherDisplay:10.37,2013-07-31 19:47:00,
2013-07-31 14:52:00,97.5,73.3,30.03,WSW,248,0.0,0.3,46,0.00,OVC,,0.00,70.0,WeatherDisplay:10.37,2013-07-31 19:52:00,
2013-07-31 14:57:00,97.5,72.6,30.03,SW,225,0.0,0.3,45,0.00,OVC,,0.00,70.0,WeatherDisplay:10.37,2013-07-31 19:57:00,
2013-07-31 15:02:00,97.7,72.8,30.03,SSE,158,2.9,2.9,45,0.00,OVC,,0.00,80.0,WeatherDisplay:10.37,2013-07-31 20:02:00,
2013-07-31 15:07:00,97.5,73.3,30.03,NE,45,2.3,2.3,46,0.00,OVC,,0.00,70.0,WeatherDisplay:10.37,2013-07-31 20:07:00,
2013-07-31 15:13:00,97.5,73.3,30.02,NNE,22,0.0,0.8,46,0.00,OVC,,0.00,70.0,WeatherDisplay:10.37,2013-07-31 20:13:00,
2013-07-31 15:18:00,97.7,72.8,30.02,West,270,0.0,0.3,45,0.00,OVC,,0.00,70.0,WeatherDisplay:10.37,2013-07-31 20:18:00,
2013-07-31 15:23:00,97.9,72.9,30.02,WSW,248,1.2,1.2,45,0.00,OVC,,0.00,70.0,WeatherDisplay:10.37,2013-07-31 20:23:00,
2013-07-31 15:28:00,98.2,73.3,30.02,SE,135,1.2,1.2,45,0.00,OVC,,0.00,80.0,WeatherDisplay:10.37,2013-07-31 20:28:00,
2013-07-31 15:33:00,98.2,73.3,30.01,WSW,248,1.2,1.2,45,0.00,OVC,,0.00,80.0,WeatherDisplay:10.37,2013-07-31 20:33:00,
2013-07-31 15:39:00,98.4,73.4,30.01,NW,315,1.2,1.2,45,0.00,OVC,,0.00,80.0,WeatherDisplay:10.37,2013-07-31 20:39:00,
2013-07-31 15:44:00,98.6,73.6,30.01,SE,135,0.0,0.1,45,0.00,OVC,,0.00,80.0,WeatherDisplay:10.37,2013-07-31 20:44:00,
2013-07-31 15:49:00,99.0,73.9,30.00,West,270,0.0,0.1,45,0.00,OVC,,0.00,80.0,WeatherDisplay:10.37,2013-07-31 20:49:00,
2013-07-31 15:54:00,99.1,72.7,30.00,WNW,292,1.2,1.2,43,0.00,OVC,,0.00,80.0,WeatherDisplay:10.37,2013-07-31 20:54:00,
2013-07-31 15:59:00,99.1,73.4,30.00,South,180,0.0,0.3,44,0.00,OVC,,0.00,80.0,WeatherDisplay:10.37,2013-07-31 20:59:00,
2013-07-31 16:04:00,99.5,73.7,30.00,ESE,112,0.0,0.2,44,0.00,OVC,,0.00,80.0,WeatherDisplay:10.37,2013-07-31 21:04:00,
2013-07-31 16:09:00,99.5,73.7,30.00,SSW,202,2.3,2.3,44,0.00,OVC,,0.00,80.0,WeatherDisplay:10.37,2013-07-31 21:09:00,
2013-07-31 16:14:00,99.5,72.3,30.00,West,270,0.0,0.3,42,0.00,OVC,,0.00,80.0,WeatherDisplay:10.37,2013-07-31 21:14:00,
2013-07-31 16:20:00,99.7,72.5,30.00,SW,225,0.0,0.0,42,0.00,OVC,,0.00,80.0,WeatherDisplay:10.37,2013-07-31 21:20:00,
2013-07-31 16:25:00,100.2,73.0,30.00,ESE,112,1.2,1.2,42,0.00,OVC,,0.00,80.0,WeatherDisplay:10.37,2013-07-31 21:25:00,
2013-07-31 16:30:00,100.0,72.8,29.99,ESE,112,2.3,2.3,42,0.00,OVC,,0.00,80.0,WeatherDisplay:10.37,2013-07-31 21:30:00,
2013-07-31 16:35:00,100.2,72.3,29.99,South,180,1.2,1.2,41,0.00,OVC,,0.00,80.0,WeatherDisplay:10.37,2013-07-31 21:35:00,
2013-07-31 16:40:00,100.2,73.0,29.99,East,90,4.6,4.6,42,0.00,OVC,,0.00,80.0,WeatherDisplay:10.37,2013-07-31 21:40:00,
2013-07-31 16:45:00,100.0,72.1,29.99,WSW,248,2.3,2.3,41,0.00,OVC,,0.00,80.0,WeatherDisplay:10.37,2013-07-31 21:45:00,
2013-07-31 16:51:00,100.2,72.3,29.98,ENE,68,2.3,2.3,41,0.00,OVC,,0.00,80.0,WeatherDisplay:10.37,2013-07-31 21:51:00,
2013-07-31 16:56:00,100.2,71.5,29.98,WNW,292,1.2,1.2,40,0.00,OVC,,0.00,80.0,WeatherDisplay:10.37,2013-07-31 21:56:00,
2013-07-31 17:01:00,100.6,72.6,29.98,SE,135,4.6,4.6,41,0.00,OVC,,0.00,80.0,WeatherDisplay:10.37,2013-07-31 22:01:00,
2013-07-31 17:06:00,100.6,72.6,29.98,SE,135,2.3,2.3,41,0.00,OVC,,0.00,80.0,WeatherDisplay:10.37,2013-07-31 22:06:00,
2013-07-31 17:11:00,100.6,73.3,29.97,WSW,248,3.5,3.5,42,0.00,OVC,,0.00,80.0,WeatherDisplay:10.37,2013-07-31 22:11:00,
2013-07-31 17:17:00,100.4,73.1,29.97,South,180,2.3,2.3,42,0.00,OVC,,0.00,80.0,WeatherDisplay:10.37,2013-07-31 22:17:00,
2013-07-31 17:22:00,100.4,72.4,29.97,SE,135,1.2,1.3,41,0.00,OVC,,0.00,80.0,WeatherDisplay:10.37,2013-07-31 22:22:00,
2013-07-31 17:27:00,100.4,72.4,29.97,SSW,202,0.0,0.7,41,0.00,OVC,,0.00,80.0,WeatherDisplay:10.37,2013-07-31 22:27:00,
2013-07-31 17:32:00,100.6,72.6,29.97,SE,135,0.0,0.3,41,0.00,OVC,,0.00,80.0,WeatherDisplay:10.37,2013-07-31 22:32:00,
2013-07-31 17:37:00,99.9,72.7,29.97,SSW,202,4.6,4.6,42,0.00,OVC,,0.00,80.0,WeatherDisplay:10.37,2013-07-31 22:37:00,
2013-07-31 17:43:00,100.0,72.1,29.97,SW,225,4.6,4.6,41,0.00,OVC,,0.00,80.0,WeatherDisplay:10.37,2013-07-31 22:43:00,
2013-07-31 17:48:00,100.4,72.4,29.97,NW,315,0.0,1.3,41,0.00,OVC,,0.00,80.0,WeatherDisplay:10.37,2013-07-31 22:48:00,
2013-07-31 17:53:00,100.0,72.1,29.96,West,270,0.0,0.1,41,0.00,OVC,,0.00,80.0,WeatherDisplay:10.37,2013-07-31 22:53:00,
2013-07-31 17:58:00,99.9,71.9,29.96,West,270,0.0,0.0,41,0.00,OVC,,0.00,80.0,WeatherDisplay:10.37,2013-07-31 22:58:00,
2013-07-31 18:03:00,99.9,72.7,29.96,WSW,248,0.0,0.1,42,0.00,OVC,,0.00,80.0,WeatherDisplay:10.37,2013-07-31 23:03:00,
2013-07-31 18:08:00,100.0,71.4,29.96,WNW,292,0.0,0.2,40,0.00,OVC,,0.00,80.0,WeatherDisplay:10.37,2013-07-31 23:08:00,
2013-07-31 18:13:00,99.9,72.7,29.95,SSE,158,1.2,1.2,42,0.00,OVC,,0.00,80.0,WeatherDisplay:10.37,2013-07-31 23:13:00,
2013-07-31 18:19:00,99.3,73.6,29.95,SSE,158,0.0,0.0,44,0.00,OVC,,0.00,80.0,WeatherDisplay:10.37,2013-07-31 23:19:00,
2013-07-31 18:24:00,99.1,73.4,29.95,South,180,1.2,1.2,44,0.00,OVC,,0.00,80.0,WeatherDisplay:10.37,2013-07-31 23:24:00,
2013-07-31 18:29:00,99.0,73.2,29.95,South,180,1.2,1.2,44,0.00,OVC,,0.00,80.0,WeatherDisplay:10.37,2013-07-31 23:29:00,
2013-07-31 18:34:00,99.1,73.4,29.95,SSE,158,0.0,0.3,44,0.00,OVC,,0.00,80.0,WeatherDisplay:10.37,2013-07-31 23:34:00,
2013-07-31 18:40:00,99.1,73.4,29.95,South,180,2.3,2.3,44,0.00,OVC,,0.00,80.0,WeatherDisplay:10.37,2013-07-31 23:40:00,
2013-07-31 18:45:00,98.6,72.2,29.95,SSE,158,2.8,2.8,43,0.00,OVC,,0.00,80.0,WeatherDisplay:10.37,2013-07-31 23:45:00,
2013-07-31 18:50:00,98.4,72.1,29.95,South,180,2.3,2.3,43,0.00,OVC,,0.00,80.0,WeatherDisplay:10.37,2013-07-31 23:50:00,
2013-07-31 18:55:00,98.4,72.1,29.95,SE,135,3.5,3.5,43,0.00,OVC,,0.00,80.0,WeatherDisplay:10.37,2013-07-31 23:55:00,
2013-07-31 19:00:00,98.6,72.2,29.95,SE,135,1.2,1.7,43,0.00,OVC,,0.00,80.0,WeatherDisplay:10.37,2013-08-01 00:00:00,
2013-07-31 19:05:00,98.4,72.1,29.95,SE,135,3.5,3.5,43,0.00,OVC,,0.00,80.0,WeatherDisplay:10.37,2013-08-01 00:05:00,
2013-07-31 19:10:00,98.1,71.7,29.97,South,180,0.0,1.2,43,0.00,OVC,,0.00,80.0,WeatherDisplay:10.37,2013-08-01 00:10:00,
2013-07-31 19:16:00,98.1,71.7,29.97,SW,225,2.3,2.3,43,0.00,OVC,,0.00,80.0,WeatherDisplay:10.37,2013-08-01 00:16:00,
2013-07-31 19:21:00,97.5,71.3,29.97,SW,225,2.3,2.3,43,0.00,OVC,,0.00,80.0,WeatherDisplay:10.37,2013-08-01 00:21:00,
2013-07-31 19:26:00,97.3,71.1,29.97,South,180,0.0,0.6,43,0.00,OVC,,0.00,80.0,WeatherDisplay:10.37,2013-08-01 00:26:00,
2013-07-31 19:31:00,97.3,71.1,29.96,SE,135,1.2,1.2,43,0.00,OVC,,0.00,80.0,WeatherDisplay:10.37,2013-08-01 00:31:00,
2013-07-31 19:37:00,97.3,71.1,29.96,WNW,292,0.0,0.3,43,0.00,OVC,,0.00,80.0,WeatherDisplay:10.37,2013-08-01 00:37:00,
2013-07-31 19:42:00,96.8,71.3,29.96,West,270,0.0,0.2,44,0.00,OVC,,0.00,80.0,WeatherDisplay:10.37,2013-08-01 00:42:00,
2013-07-31 19:47:00,96.8,71.3,29.96,NNW,338,0.0,0.0,44,0.00,OVC,,0.00,80.0,WeatherDisplay:10.37,2013-08-01 00:47:00,
2013-07-31 19:53:00,96.1,70.6,29.97,ESE,112,2.3,2.3,44,0.00,OVC,,0.00,80.0,WeatherDisplay:10.37,2013-08-01 00:53:00,
2013-07-31 19:58:00,95.7,71.0,29.97,West,270,1.2,1.2,45,0.00,OVC,,0.00,80.0,WeatherDisplay:10.37,2013-08-01 00:58:00,
2013-07-31 20:03:00,95.5,70.8,29.97,SE,135,1.2,1.2,45,0.00,OVC,,0.00,80.0,WeatherDisplay:10.37,2013-08-01 01:03:00,
2013-07-31 20:08:00,95.5,71.5,29.97,South,180,1.5,1.5,46,0.00,OVC,,0.00,80.0,WeatherDisplay:10.37,2013-08-01 01:08:00,
2013-07-31 20:13:00,95.2,71.1,29.99,NW,315,0.0,0.1,46,0.00,OVC,,0.00,80.0,WeatherDisplay:10.37,2013-08-01 01:13:00,
2013-07-31 20:19:00,94.8,72.1,29.99,West,270,0.0,0.0,48,0.00,OVC,,0.00,80.0,WeatherDisplay:10.37,2013-08-01 01:19:00,
2013-07-31 20:24:00,94.8,72.1,29.99,West,270,0.0,0.0,48,0.00,OVC,,0.00,80.0,WeatherDisplay:10.37,2013-08-01 01:24:00,
2013-07-31 20:29:00,94.3,72.2,29.98,South,180,0.0,0.0,49,0.00,OVC,,0.00,80.0,WeatherDisplay:10.37,2013-08-01 01:29:00,
2013-07-31 20:34:00,94.1,72.0,29.98,West,270,0.0,0.0,49,0.00,OVC,,0.00,80.0,WeatherDisplay:10.37,2013-08-01 01:34:00,
2013-07-31 20:40:00,93.7,72.3,29.98,SW,225,0.0,0.0,50,0.00,OVC,,0.00,80.0,WeatherDisplay:10.37,2013-08-01 01:40:00,
2013-07-31 20:45:00,93.7,72.3,29.98,WSW,248,0.0,0.0,50,0.00,OVC,,0.00,80.0,WeatherDisplay:10.37,2013-08-01 01:45:00,
2013-07-31 20:50:00,93.2,72.4,29.99,WSW,248,0.0,0.0,51,0.00,OVC,,0.00,80.0,WeatherDisplay:10.37,2013-08-01 01:50:00,
2013-07-31 20:56:00,93.4,72.5,29.99,WSW,248,0.0,0.0,51,0.00,OVC,,0.00,80.0,WeatherDisplay:10.37,2013-08-01 01:56:00,
2013-07-31 21:01:00,93.0,72.8,29.99,WSW,248,0.0,0.0,52,0.00,CLR,,0.00,80.0,WeatherDisplay:10.37,2013-08-01 02:01:00,
2013-07-31 21:06:00,93.0,72.8,29.99,WSW,248,0.0,0.0,52,0.00,CLR,,0.00,80.0,WeatherDisplay:10.37,2013-08-01 02:06:00,
2013-07-31 21:11:00,92.5,72.9,29.98,SSE,158,0.0,0.0,53,0.00,CLR,,0.00,80.0,WeatherDisplay:10.37,2013-08-01 02:11:00,
2013-07-31 21:16:00,92.7,73.0,29.98,SE,135,2.9,2.9,53,0.00,CLR,,0.00,80.0,WeatherDisplay:10.37,2013-08-01 02:16:00,
2013-07-31 21:21:00,92.7,72.5,29.98,East,90,2.3,2.3,52,0.00,CLR,,0.00,80.0,WeatherDisplay:10.37,2013-08-01 02:21:00,
2013-07-31 21:26:00,92.3,72.7,29.98,ESE,112,1.2,1.2,53,0.00,CLR,,0.00,0.0,WeatherDisplay:10.37,2013-08-01 02:26:00,
2013-07-31 21:31:00,92.3,72.1,29.99,ESE,112,2.3,2.3,52,0.00,CLR,,0.00,0.0,WeatherDisplay:10.37,2013-08-01 02:31:00,
2013-07-31 21:37:00,92.3,72.1,29.99,ENE,68,0.0,0.5,52,0.00,CLR,,0.00,0.0,WeatherDisplay:10.37,2013-08-01 02:37:00,
2013-07-31 21:42:00,92.1,72.0,29.99,NNE,22,0.0,0.0,52,0.00,CLR,,0.00,0.0,WeatherDisplay:10.37,2013-08-01 02:42:00,
2013-07-31 21:47:00,92.1,72.0,29.99,ESE,112,0.0,0.0,52,0.00,CLR,,0.00,0.0,WeatherDisplay:10.37,2013-08-01 02:47:00,
2013-07-31 21:52:00,91.9,71.8,29.99,SSE,158,0.0,0.0,52,0.00,CLR,,0.00,0.0,WeatherDisplay:10.37,2013-08-01 02:52:00,
2013-07-31 21:57:00,91.9,72.9,29.99,WSW,248,0.0,0.0,54,0.00,CLR,,0.00,0.0,WeatherDisplay:10.37,2013-08-01 02:57:00,
2013-07-31 22:03:00,91.8,73.3,29.99,South,180,0.0,0.0,55,0.00,CLR,,0.00,0.0,WeatherDisplay:10.37,2013-08-01 03:03:00,
2013-07-31 22:08:00,91.4,74.0,29.99,SSW,202,0.0,0.0,57,0.00,CLR,,0.00,0.0,WeatherDisplay:10.37,2013-08-01 03:08:00,
2013-07-31 22:13:00,91.2,73.9,29.98,NW,315,0.0,0.0,57,0.00,CLR,,0.00,0.0,WeatherDisplay:10.37,2013-08-01 03:13:00,
2013-07-31 22:18:00,91.0,73.2,29.98,West,270,0.0,0.0,56,0.00,CLR,,0.00,0.0,WeatherDisplay:10.37,2013-08-01 03:18:00,
2013-07-31 22:24:00,90.9,73.5,29.98,WSW,248,0.0,0.0,57,0.00,CLR,,0.00,0.0,WeatherDisplay:10.37,2013-08-01 03:24:00,
2013-07-31 22:29:00,90.7,73.9,29.99,NE,45,0.0,0.0,58,0.00,CLR,,0.00,0.0,WeatherDisplay:10.37,2013-08-01 03:29:00,
2013-07-31 22:34:00,90.9,74.0,29.99,NW,315,0.0,0.0,58,0.00,CLR,,0.00,0.0,WeatherDisplay:10.37,2013-08-01 03:34:00,
2013-07-31 22:39:00,90.5,73.2,29.99,NW,315,0.0,0.0,57,0.00,CLR,,0.00,0.0,WeatherDisplay:10.37,2013-08-01 03:39:00,
2013-07-31 22:44:00,90.5,73.7,29.99,NW,315,0.0,0.0,58,0.00,CLR,,0.00,0.0,WeatherDisplay:10.37,2013-08-01 03:44:00,
2013-07-31 22:49:00,90.5,73.7,29.98,NNW,338,0.0,0.0,58,0.00,CLR,,0.00,0.0,WeatherDisplay:10.37,2013-08-01 03:49:00,
2013-07-31 22:54:00,90.5,74.2,29.98,NNW,338,0.0,0.0,59,0.00,CLR,,0.00,0.0,WeatherDisplay:10.37,2013-08-01 03:54:00,
2013-07-31 22:59:00,90.1,73.9,29.98,NNW,338,0.0,0.0,59,0.00,CLR,,0.00,0.0,WeatherDisplay:10.37,2013-08-01 03:59:00,
2013-07-31 23:01:00,90.0,74.2,29.98,NNW,338,0.0,0.0,60,0.00,CLR,,0.00,0.0,WeatherDisplay:10.37,2013-08-01 04:01:00,
2013-07-31 23:02:00,90.1,74.4,29.98,NNW,338,0.0,0.0,60,0.00,CLR,,0.00,0.0,WeatherDisplay:10.37,2013-08-01 04:02:00,
2013-07-31 23:04:00,90.1,74.4,29.98,NNW,338,0.0,0.0,60,0.00,CLR,,0.00,0.0,WeatherDisplay:10.37,2013-08-01 04:04:00,
2013-07-31 23:09:00,89.8,74.0,30.01,NNE,22,0.0,0.0,60,0.00,CLR,,0.00,0.0,WeatherDisplay:10.37,2013-08-01 04:09:00,
2013-07-31 23:14:00,89.6,74.4,30.01,NNE,22,0.0,0.0,61,0.00,CLR,,0.00,0.0,WeatherDisplay:10.37,2013-08-01 04:14:00,
2013-07-31 23:19:00,89.6,74.4,30.01,SSE,158,1.2,0.0,61,0.00,CLR,,0.00,0.0,WeatherDisplay:10.37,2013-08-01 04:19:00,
2013-07-31 23:24:00,89.4,74.2,30.01,SSE,158,2.3,2.3,61,0.00,CLR,,0.00,0.0,WeatherDisplay:10.37,2013-08-01 04:24:00,
2013-07-31 23:29:00,89.4,73.7,30.01,SSE,158,2.3,2.3,60,0.00,CLR,,0.00,0.0,WeatherDisplay:10.37,2013-08-01 04:29:00,
2013-07-31 23:35:00,89.4,73.2,30.01,SSE,158,0.0,1.2,59,0.00,CLR,,0.00,0.0,WeatherDisplay:10.37,2013-08-01 04:35:00,
2013-07-31 23:40:00,89.2,73.0,30.01,West,270,0.0,0.6,59,0.00,CLR,,0.00,0.0,WeatherDisplay:10.37,2013-08-01 04:40:00,
2013-07-31 23:45:00,89.2,73.0,30.01,SSE,158,0.0,0.0,59,0.00,CLR,,0.00,0.0,WeatherDisplay:10.37,2013-08-01 04:45:00,
2013-07-31 23:50:00,89.1,72.9,30.00,SSE,158,1.2,1.2,59,0.00,CLR,,0.00,0.0,WeatherDisplay:10.37,2013-08-01 04:50:00,
2013-07-31 23:55:00,88.9,72.7,30.00,SSE,158,0.0,0.3,59,0.00,CLR,,0.00,0.0,WeatherDisplay:10.37,2013-08-01 04:55:00,